Regional Weather Roundup
Issued by NWS

Home | Current Version | Previous Version | Text Only | Print | Product List | Glossary Off
Versions: 1 2 3 4 5 6 7 8 9 10 11 12 13 14 15 16 17 18 19 20 21 22 23 24 25 26 27 28 29 30 31 32 33 34 35 36 37 38 39 40 41 42 43 44 45 46 47 48 49 50

000
ASUS45 KCYS 030310
RWRWY

WYOMING REGIONAL WEATHER ROUNDUP
NATIONAL WEATHER SERVICE CHEYENNE WY
800 PM MST MON MAR 02 2015

NOTE:  "FAIR" INDICATES FEW OR NO CLOUDS BELOW 12,000 FEET
WITH NO SIGNIFICANT WEATHER AND/OR OBSTRUCTIONS TO VISIBILITY.

WYZ001-030400-
YELLOWSTONE NATIONAL PARK

CITY           SKY/WX    TMP DP  RH WIND       PRES   REMARKS
LK YELLOWSTONE   N/A     21  18  88 VRB3      29.60F
W YELLOWSTONE  NOT AVBL

$$
WYZ002>013-054>058-071-098>099-030400-
NORTHERN WYOMING

CITY           SKY/WX    TMP DP  RH WIND       PRES   REMARKS
JACKSON        NOT AVBL
CODY           CLOUDY    27  19  74 N20G31    29.71R WCI  13
GREYBULL       CLOUDY    34  17  50 NW23G29   29.63F WCI  22
WORLAND        CLOUDY    33  22  63 SE13      29.65F WCI  24
SHERIDAN       CLOUDY    32  19  58 N14       29.77R WCI  22
BUFFALO        CLOUDY    30  19  63 N15G24    29.71R WCI  19
GILLETTE       CLOUDY    32  17  54 N14       29.68F WCI  22
HULETT         CLOUDY    32  18  55 N6        29.71F WCI  26
NEWCASTLE      FLURRIES  34  27  75 NE13      29.67R WCI  25

$$
WYZ014>020-022>026-101>103-030400-
CENTRAL WYOMING

CITY           SKY/WX    TMP DP  RH WIND       PRES   REMARKS
BIG PINEY      LGT SNOW  27  24  89 CALM      29.57F VSB 1
PINEDALE       LGT SNOW  25  25 100 CALM      29.58R
DUBOIS         LGT SNOW  23  21  93 SE5       29.56R WCI  17
LANDER         CLOUDY    24  16  71 N6        29.62S WCI  17
RIVERTON       LGT SNOW  23  20  88 W6        29.64S FOG     WCI  16
CASPER         LGT SNOW  29  26  89 N8        29.63S FOG     WCI  21
DOUGLAS        LGT SNOW  32  31  96 NE7       29.64R VSB 1   WCI  26

$$
WYZ021-027>030-104>119-030400-
SOUTHERN WYOMING

CITY           SKY/WX    TMP DP  RH WIND       PRES   REMARKS
EVANSTON       LGT SNOW  29  28  96 SW16      29.60R VSB 3/4 WCI  17
KEMMERER       LGT SNOW  28  28 100 SW6       29.58R WCI  22
FORT BRIDGER   SNOW      28  28 100 W6        29.62R VSB 1/2 WCI  22
ROCK SPRINGS   MOCLDY    28  26  92 VRB3      29.57S
DIXON          LGT SNOW  34  33  95 SW13      29.66R WCI  25
RAWLINS        LGT SNOW  32  31  96 SW3       29.58S FOG
SARATOGA       LGT SNOW  32  32 100 W7        29.60F WCI  26
LARAMIE        CLOUDY    33  32  96 SW9       29.55F WCI  25
CHEYENNE       MOCLDY    29  23  78 W9        29.56R HAZE    WCI  20
TORRINGTON     MOCLDY    31  23  72 E15       29.59R WCI  20
PINE BLUFFS    FAIR      28  27  93 SE12      29.55F WCI  18

$$



USA.gov is the U.S. government's official web portal to all federal, state and local government web resources and services.